EW6892 Weather Reports


Display with metric or nautical units.
time (UTC)temp
F
wind
direction
speed
MPH
gust
MPH
rain 1hr
in
rain 24hr
in
rain mn
in
humidity
%
barometer
mb
20180717132020 66 0.0 0.0 0.00 0.00 0.00 80 1016.0
20180717131015 66 0.0 0.0 0.00 0.00 0.00 79 1016.0
20180717130017 66 0.0 0.0 0.00 0.00 0.00 79 1015.9
20180717125020 66 0.0 0.0 0.00 0.00 0.00 79 1015.8
20180717124020 67 0.0 0.0 0.00 0.00 0.00 78 1015.7
20180717123020 67 0.0 0.0 0.00 0.00 0.00 78 1015.6
20180717122018 67 0.0 0.0 0.00 0.00 0.00 77 1015.6
20180717121017 68 0.0 0.0 0.00 0.00 0.00 75 1015.5
20180717120019 68 0.0 0.0 0.00 0.00 0.00 75 1015.5
20180717115017 68 0.0 0.0 0.00 0.00 0.00 74 1015.6
20180717114018 68 0.0 0.0 0.00 0.00 0.00 74 1015.5
20180717113017 69 0.0 0.0 0.00 0.00 0.00 73 1015.5
20180717112016 69 0.0 0.0 0.00 0.00 0.00 73 1015.3
20180717111020 69 0.0 0.0 0.00 0.00 0.00 73 1015.1
20180717110018 69 0.0 0.0 0.00 0.00 0.00 73 1015.1
20180717105020 69 0.0 0.0 0.00 0.00 0.00 72 1015.1
20180717104020 70 0.0 0.0 0.00 0.00 0.00 71 1015.0
20180717103021 70 0.0 0.0 0.00 0.00 0.00 70 1014.9
20180717102017 71 0.0 0.0 0.00 0.00 0.00 68 1015.0
20180717101016 71 0.0 0.0 0.00 0.00 0.00 65 1015.0
20180717100015 72 0.0 0.0 0.00 0.00 0.00 65 1015.0
20180717095020 72 0.0 0.0 0.00 0.00 0.00 66 1015.0
20180717094017 72 0.0 0.0 0.00 0.00 0.00 65 1015.0
20180717093016 73 0.0 0.0 0.00 0.00 0.00 64 1014.8
20180717092018 73 0.0 0.0 0.00 0.00 0.00 63 1014.7
20180717091016 74 0.0 0.0 0.00 0.00 0.00 61 1014.6
20180717090017 74 0.0 0.0 0.00 0.00 0.00 60 1014.6
20180717085016 74 0.0 0.0 0.00 0.00 0.00 60 1014.6
20180717084016 74 0 0.0 1.0 0.00 0.00 0.00 62 1014.5
20180717083017 74 0.0 0.0 0.00 0.00 0.00 62 1014.6
20180717082017 75 0.0 0.0 0.00 0.00 0.00 60 1014.6
20180717081020 75 0.0 0.0 0.00 0.00 0.00 59 1014.5
20180717080019 76 0.0 0.0 0.00 0.00 0.00 59 1014.5
20180717075018 76 0.0 0.0 0.00 0.00 0.00 59 1014.4
20180717074020 76 0.0 0.0 0.00 0.00 0.00 59 1014.4
20180717073017 76 0.0 0.0 0.00 0.00 0.00 57 1014.4
20180717072020 77 0.0 0.0 0.00 0.00 0.00 56 1014.4
20180717071021 78 0.0 0.0 0.00 0.00 0.00 55 1014.3
20180717070021 78 0.0 0.0 0.00 0.00 0.00 54 1014.2
20180717065020 78 0.0 0.0 0.00 0.00 0.00 52 1014.1
20180717064021 79 0.0 0.0 0.00 0.00 0.00 51 1014.0
20180717063017 79 0.0 0.0 0.00 0.00 0.00 51 1013.9
20180717062016 80 0.0 0.0 0.00 0.00 0.00 50 1013.9
20180717061016 81 0.0 0.0 0.00 0.00 0.00 48 1013.9
20180717060017 81 0.0 0.0 0.00 0.00 0.00 47 1013.8
20180717055015 82 0.0 0.0 0.00 0.00 0.00 46 1013.9
20180717054019 83 0.0 0.0 0.00 0.00 0.00 46 1013.9
20180717053018 83 180 0.0 1.0 0.00 0.00 0.00 45 1013.6
20180717052021 84 0.0 0.0 0.00 0.00 0.00 44 1013.5
20180717051018 85 0.0 0.0 0.00 0.00 0.00 42 1013.5
20180717050018 86 0.0 0.0 0.00 0.00 0.00 38 1013.3
20180717045016 87 0.0 0.0 0.00 0.00 0.00 35 1013.3
20180717044015 88 0.0 0.0 0.00 0.00 0.00 34 1013.0
20180717043016 89 0.0 1.0 0.00 0.00 0.00 33 1012.7
20180717042016 89 0 0.0 1.0 0.00 0.00 0.00 32 1012.6
20180717041021 90 322 0.0 2.0 0.00 0.00 0.00 31 1012.4
20180717040019 91 0 0.0 2.0 0.00 0.00 0.00 33 1012.3
20180717035017 92 0 0.0 3.0 0.00 0.00 0.00 33 1012.1
20180717034017 93 90 0.0 3.0 0.00 0.00 0.00 31 1012.0
20180717033016 93 82 1.0 4.0 0.00 0.00 0.00 31 1012.1
20180717032016 94 10 1.0 3.0 0.00 0.00 0.00 29 1011.9
20180717031018 95 32 1.0 5.0 0.00 0.00 0.00 28 1011.8
20180717030018 97 50 1.0 4.0 0.00 0.00 0.00 25 1011.6
20180717025019 99 13 1.0 3.0 0.00 0.00 0.00 23 1011.4
20180717024020 101 13 2.0 6.0 0.00 0.00 0.00 14 1011.3
20180717023020 103 44 1.0 6.0 0.00 0.00 0.00 14 1011.1
20180717022019 106 45 3.0 4.0 0.00 0.00 0.00 12 1010.9
20180717021019 106 55 1.0 5.0 0.00 0.00 0.00 12 1010.7
20180717020021 104 29 0.0 2.0 0.00 0.00 0.00 13 1010.5
20180717015017 101 37 1.0 3.0 0.00 0.00 0.00 14 1010.6
20180717014017 100 17 1.0 6.0 0.00 0.00 0.00 17 1010.6
20180717013017 99 51 0.0 3.0 0.00 0.00 0.00 19 1010.7
20180717012019 98 1 0.0 3.0 0.00 0.00 0.00 19 1010.8
20180717011020 98 67 0.0 1.0 0.00 0.00 0.00 21 1010.8
20180717010017 99 29 0.0 3.0 0.00 0.00 0.00 19 1011.0
20180717005020 100 21 1.0 3.0 0.00 0.00 0.00 16 1011.1
20180717004017 100 32 1.0 5.0 0.00 0.00 0.00 19 1011.1
20180717003020 100 15 0.0 3.0 0.00 0.00 0.00 16 1011.0
20180717002016 99 3 1.0 5.0 0.00 0.00 0.00 20 1011.1
20180717001017 99 41 1.0 6.0 0.00 0.00 0.00 17 1011.0
20180717000019 99 29 0.0 3.0 0.00 0.00 0.00 21 1011.2
20180716235019 99 40 1.0 7.0 0.00 0.00 0.00 22 1011.2
20180716234016 99 36 0.0 4.0 0.00 0.00 0.00 22 1011.2
20180716233019 99 16 1.0 2.0 0.00 0.00 0.00 22 1011.2
20180716232017 99 15 2.0 6.0 0.00 0.00 0.00 22 1011.3
20180716231019 99 45 1.0 3.0 0.00 0.00 0.00 23 1011.4
20180716230020 99 4 1.0 5.0 0.00 0.00 0.00 22 1011.4
20180716225016 99 22 0.0 2.0 0.00 0.00 0.00 23 1011.5
20180716224018 99 73 1.0 4.0 0.00 0.00 0.00 22 1011.6
20180716223018 99 47 1.0 3.0 0.00 0.00 0.00 22 1011.6
20180716222017 99 0 0.0 2.0 0.00 0.00 0.00 22 1011.8
20180716221017 98 22 1.0 5.0 0.00 0.00 0.00 22 1011.9
20180716220015 98 104 0.0 3.0 0.00 0.00 0.00 23 1012.0
20180716215015 97 75 0.0 2.0 0.00 0.00 0.00 25 1012.0
20180716214017 97 65 0.0 6.0 0.00 0.00 0.00 28 1012.3
20180716213016 97 36 1.0 6.0 0.00 0.00 0.00 29 1012.4
20180716212016 96 35 0.0 2.0 0.00 0.00 0.00 33 1012.5
20180716211020 95 100 0.0 3.0 0.00 0.00 0.00 33 1012.5
20180716210018 95 7 1.0 6.0 0.00 0.00 0.00 33 1012.6
20180716205017 95 50 1.0 4.0 0.00 0.00 0.00 33 1012.6
20180716204017 94 342 0.0 2.0 0.00 0.00 0.00 34 1012.7
20180716203021 93 0.0 0.0 0.00 0.00 0.00 36 1012.8
20180716202022 93 0.0 0.0 0.00 0.00 0.00 37 1013.1
20180716201019 92 0.0 0.0 0.00 0.00 0.00 38 1013.1
20180716200019 91 0.0 1.0 0.00 0.00 0.00 38 1013.3
20180716195017 90 0.0 0.0 0.00 0.01 0.00 37 1013.4
20180716194023 90 0.0 0.0 0.00 0.03 0.00 39 1013.4
20180716193016 90 0.0 0.0 0.00 0.03 0.00 38 1013.6
20180716192020 89 0.0 0.0 0.00 0.03 0.00 41 1013.8
20180716191020 88 0.0 1.0 0.00 0.03 0.00 39 1013.8
20180716190016 88 0.0 1.0 0.00 0.03 0.00 41 1013.8
20180716185020 86 0.0 0.0 0.00 0.03 0.00 43 1013.9
20180716184017 85 0.0 0.0 0.00 0.04 0.00 45 1014.1
20180716183016 85 0.0 0.0 0.00 0.05 0.00 47 1014.2
20180716182016 85 0.0 0.0 0.00 0.05 0.00 46 1014.2
20180716181020 83 0.0 0.0 0.00 0.05 0.00 49 1014.3
20180716180018 82 0.0 0.0 0.00 0.05 0.00 50 1014.4
20180716175021 81 0.0 0.0 0.00 0.05 0.00 51 1014.5
20180716174018 81 0.0 0.0 0.00 0.05 0.00 52 1014.6
20180716173016 80 0.0 0.0 0.00 0.05 0.00 51 1014.8
20180716172018 80 0.0 0.0 0.00 0.05 0.00 52 1015.0
20180716171017 79 0.0 0.0 0.00 0.07 0.00 54 1015.1
20180716170019 79 0.0 0.0 0.00 0.08 0.00 55 1015.2
20180716165016 79 0.0 0.0 0.00 0.08 0.00 54 1015.2
20180716164018 79 0.0 0.0 0.00 0.08 0.00 54 1015.4
20180716163016 79 0.0 0.0 0.00 0.08 0.00 54 1015.4
20180716162019 78 0.0 0.0 0.00 0.08 0.00 55 1015.5
20180716161016 80 0.0 0.0 0.00 0.08 0.00 52 1015.6
20180716160018 83 0.0 0.0 0.00 0.08 0.00 48 1015.6
20180716155017 89 0.0 0.0 0.00 0.08 0.00 42 1015.7
20180716154018 90 0.0 0.0 0.00 0.08 0.00 43 1015.8
20180716153016 89 0.0 0.0 0.00 0.08 0.00 43 1015.8
20180716152019 86 0.0 0.0 0.00 0.08 0.00 46 1015.7
20180716151020 86 0.0 0.0 0.00 0.08 0.00 46 1015.7
20180716150018 86 0.0 0.0 0.00 0.08 0.00 47 1015.8
20180716145020 86 0.0 0.0 0.00 0.08 0.00 49 1015.9
20180716144018 82 0.0 0.0 0.00 0.08 0.00 57 1015.8
20180716143020 79 0.0 0.0 0.00 0.08 0.00 64 1015.8
20180716142018 71 0.0 0.0 0.00 0.08 0.00 81 1015.8
20180716141016 66 0.0 0.0 0.00 0.08 0.00 86 1015.8
20180716140020 66 0.0 0.0 0.00 0.08 0.00 86 1015.5
20180716135020 65 0.0 0.0 0.00 0.08 0.00 89 1015.6
20180716134018 64 0.0 0.0 0.00 0.08 0.00 89 1015.7
20180716133020 64 0.0 0.0 0.00 0.08 0.00 89 1015.5